Flag for Australia Weather past 2 weeks in Uluru, Northern Territory, Australia

Now
63 °F

Clear.


Feels Like: 63 °F
Forecast: 54 / 69 °F
Wind: 6 mph from East

Location: Ayers Rock

Current Time: Apr 21, 2015 at 10:04:34 PM

Latest Report: Apr 21, 2015 at 9:30 PM


Visibility: N/A

Pressure: 30.24 "Hg

Humidity: 17%

Dew point: 18 °F

Location of UluruLocation

Historic Weather in Uluru — Graph

°F

Uluru temperature yesterday

Maximum temperature yesterday: 70 °F (at 3:30 PM)
Minimum temperature yesterday: 55 °F (at 6:30 AM)
Average temperature yesterday: 63 °F

Past Weeks' High & Low Weather Summary

 TemperatureHumidityPressure
High99 °F (Apr 14, 4:30 PM)82% (Apr 17, 6:30 AM)30.39 "Hg (Apr 17, 6:30 AM)
Low48 °F (Apr 8, 6:30 AM)7% (Apr 13, 2:30 PM)29.86 "Hg (Apr 13, 3:30 PM)
Average70 °F31%30.12 "Hg
* Reported Apr 6 8:30 PM — Apr 21 8:30 PM, Uluru, Weather by CustomWeather, © 2015

Note: Actual official high and low records may vary slightly from our data, if they occured in-between our weather recording intervals... More about our weather records

Advertising

Uluru weather history for previous 24 hours

 ConditionsComfort  
Time TempWeatherWind HumidityBarometerVisibility
8:30 PM
Tue, Apr 21
66 °FClear.12 mph15%30.21 "HgN/A
7:30 PM68 °FClear.16 mph13%30.18 "HgN/A
6:30 PM68 °FClear.16 mph13%30.18 "HgN/A
5:30 PM72 °FSunny.20 mph10%30.15 "HgN/A
4:30 PM72 °FSunny.17 mph11%30.15 "HgN/A
3:30 PM72 °FSunny.17 mph12%30.15 "HgN/A
2:30 PM70 °FSunny.16 mph13%30.18 "HgN/A
1:30 PM68 °FSunny.17 mph14%30.24 "HgN/A
12:30 PM66 °FSunny.18 mph18%30.27 "HgN/A
11:30 AM64 °FSunny.20 mph19%30.30 "HgN/A
10:30 AM59 °FSunny.24 mph25%30.33 "HgN/A
9:30 AM57 °FSunny.22 mph29%30.36 "HgN/A
8:30 AM54 °FSunny.18 mph35%30.36 "HgN/A
7:30 AM52 °FSunny.13 mph38%30.33 "HgN/A
6:30 AM52 °FClear.13 mph35%30.33 "HgN/A
5:30 AM54 °FClear.13 mph33%30.30 "HgN/A
4:30 AM54 °FClear.13 mph33%30.30 "HgN/A
3:30 AM55 °FClear.14 mph31%30.30 "HgN/A
2:30 AM57 °FClear.13 mph29%30.30 "HgN/A
1:30 AM57 °FClear.12 mph29%30.33 "HgN/A
12:30 AM59 °FClear.17 mph27%30.33 "HgN/A
11:30 PM
Mon, Apr 20
61 °FClear.14 mph25%30.33 "HgN/A
10:30 PM59 °FClear.8 mph27%30.36 "HgN/A
Weather by CustomWeather, © 2015

See weather overviewHow to use our weather pages